Location: *
(51.5000°N, 0.1100°W)
Time: 04:42:41
(UTC+00:00)

Daily predictions for brighter satellites

Satellite Brightness Start Highest point End
(mag) Time Altitude Azimuth Time Altitude Azimuth Time Altitude Azimuth
ATLAS 2AS CENTAUR R/B 4.4 03:08:23 26° NNE 03:08:23 26° NNE 03:12:06 10° ENE
Cosmos 2263 Rocket 3.8 03:50:34 28° ESE 03:50:34 28° ESE 03:53:15 10° SE
Cosmos 1980 Rocket 2.6 04:22:08 58° E 04:22:08 58° E 04:27:11 10° NE
USA 215 3.1 04:16:36 10° ENE 04:23:04 85° NNE 04:23:04 85° NNE
Cosmos 1190 Rocket 4.4 04:34:16 62° ENE 04:34:16 62° ENE 04:38:54 10° NNE
SL-16 R/B 4.4 04:31:34 10° SSE 04:36:01 24° ESE 04:40:28 10° NE
Cosmos 2227 4.3 04:38:12 69° NNE 04:38:33 71° ENE 04:44:15 10° SE
Cosmos 2218 Rocket 4.4 04:44:06 48° SSW 04:44:06 48° SSW 04:48:29 10° S
Cosmos 1844 Rocket 3.9 04:40:34 27° N 04:42:44 37° NE 04:47:55 10° ESE
Cosmos 540 Rocket 3.5 04:52:02 74° NNE 04:52:21 78° ENE 04:57:32 10° SSE
Cosmos 1697 Rocket 3.4 04:54:19 39° N 04:54:19 39° N 04:58:17 10° NNE
ATLAS 2AS CENTAUR R/B 3.7 04:55:50 29° NNW 04:58:39 39° NNE 05:05:03 10° E
Iridium 4 Rocket 3.6 05:00:56 49° SSE 05:00:56 49° SSE 05:04:07 10° S
USA 267 4.2 04:54:39 10° S 04:59:20 30° SSW 04:59:20 30° SSW
COSMO-SKYMED 1 2.8 04:56:50 10° SSE 05:00:38 67° SE 05:00:38 67° SE
Cosmos 2322 Rocket 4.3 04:56:51 10° SSE 05:01:28 27° ESE 05:06:06 10° NE
CZ-2C R/B 4.3 04:58:42 10° N 05:00:53 26° N 05:00:53 26° N
Envisat 4.4 04:58:37 10° N 05:00:53 26° N 05:00:53 26° N
Cosmos 1315 Rocket 3.5 05:04:44 49° NE 05:04:44 49° NE 05:07:53 10° NNE
Cosmos 468 Rocket 3.9 05:06:28 67° WSW 05:06:28 67° WSW 05:11:35 10° SSE
SJ-12 4.4 05:02:27 10° NNE 05:06:28 59° E 05:10:27 10° S
H-2A R/B 3.9 05:04:04 10° NNE 05:08:22 29° E 05:12:41 10° SSE
PSLV R/B 3.5 05:05:30 10° NNE 05:09:48 82° ESE 05:14:07 10° SSW
Cosmos 407 Rocket 4.2 05:13:00 38° NNW 05:13:00 38° NNW 05:16:45 10° NNE
COSMOS 2455 3.8 05:06:22 10° S 05:12:05 47° ESE 05:17:50 10° NE
NOSS 3-4 (A) 3.7 05:10:24 42° NW 05:13:05 84° SW 05:20:52 10° SE
NOSS 3-4 (C) 3.7 05:10:29 42° NW 05:13:11 84° SW 05:21:00 10° SE
Cosmos 2239 Rocket 4.5 05:07:13 10° N 05:13:26 81° E 05:19:35 10° SSE
USA 308 3.1 05:14:04 56° NNE 05:14:04 56° NNE 05:17:41 10° E
Cosmos 2278 3.7 05:11:00 13° SSW 05:16:05 81° ESE 05:21:47 10° NNE
Cosmos 1763 Rocket 3.9 05:17:26 44° SW 05:17:26 44° SW 05:21:44 10° S
Nadezhda 3 Rocket 4.1 05:14:25 10° S 05:20:38 76° E 05:26:57 10° NNE
ARIANE 5 R/B 4.0 05:18:18 10° N 05:20:31 23° NNW 05:20:31 23° NNW
NOSS 3-3 (A) 3.8 05:21:15 37° SW 05:23:47 79° NW 05:30:35 10° NE
NOSS 3-3 (C) 3.8 05:21:18 36° SW 05:23:52 80° NW 05:30:40 10° NE
SKYMED 3 4.3 05:21:10 10° S 05:25:24 77° WSW 05:26:03 61° NW
USA 290 2.8 05:26:05 56° ENE 05:26:05 56° ENE 05:28:52 10° NNE
Cosmos 1844 4.2 05:22:20 22° NNW 05:25:58 59° NE 05:31:39 10° SE
Cosmos 2369 Rocket 4.4 05:26:33 10° N 05:27:13 10° N 05:27:53 10° N
NOSS 2-1 (E) 4.2 05:26:31 38° NNW 05:27:54 55° NE 05:33:24 10° ESE
STPSAT 2 (USA 217) 4.4 05:27:12 53° SW 05:28:08 73° WNW 05:32:40 10° NNE
Cosmos 2360 Rocket 4.2 05:23:58 10° SSE 05:28:42 29° ESE 05:33:28 10° NE
Lacrosse 4 Rocket 3.6 05:31:16 15° N 05:31:16 15° N 05:32:49 10° NNE
Cosmos 2181 Rocket 4.2 05:24:53 10° SW 05:31:00 46° WNW 05:37:11 10° N
Cosmos 2263 Rocket 3.0 05:32:19 30° WSW 05:32:19 30° WSW 05:36:20 10° SSW
Cosmos 1151 Rocket 2.8 05:31:12 45° NNW 05:32:27 75° W 05:36:41 10° S
USA 306 2.8 05:34:24 58° NNW 05:34:55 65° N 05:38:55 10° E
Meteor 1-10 Rocket 4.1 05:33:15 17° NNW 05:37:33 65° W 05:43:02 10° S
Meteor 2-6 Rocket 4.4 05:36:25 38° WNW 05:37:36 44° W 05:42:41 10° SSW
Cosmos 2369 4.0 05:36:41 39° W 05:37:51 44° NW 05:43:17 10° NNE
Timation 2 Rocket 4.3 05:37:34 35° W 05:38:15 36° WSW 05:43:40 10° S
Cosmos 1954 Rocket 4.0 05:36:32 25° SW 05:39:31 57° WNW 05:44:48 10° NNE
Cosmos 1515 3.6 05:40:01 59° WSW 05:40:01 59° WSW 05:43:31 10° S
DMSP B5D2-2 4.4 05:35:44 10° SSW 05:40:37 40° W 05:41:28 38° WNW
Spot 4 Rocket 4.2 05:35:40 10° N 05:40:37 47° WNW 05:45:32 10° SW
Cosmos 1378 4.4 05:38:02 10° N 05:41:22 38° ENE 05:44:45 10° SE
Cosmos 676 Rocket 4.0 05:37:15 16° SW 05:41:23 60° WNW 05:46:42 10° NNE
ATLAS 5 CENTAUR R/B 2.0 05:42:12 10° SSW 05:45:46 52° SE 05:49:51 10° NE
Aureole 3 4.2 05:40:37 10° NNW 05:47:13 77° W 05:52:28 10° S
Cosmos 2333 Rocket 4.4 05:43:50 10° SSE 05:48:30 27° ESE 05:53:11 10° NE
FALCON 9 DEB 2.6 05:48:47 79° NNW 05:48:50 80° NNW 05:51:53 10° ENE
SKYMED 2 4.1 05:45:23 10° SSW 05:49:13 36° WSW 05:49:13 36° WSW
CZ-2C R/B 4.3 05:47:54 10° N 05:49:19 20° N 05:49:19 20° N
Cosmos 1934 Rocket 3.9 05:48:16 10° NNW 05:54:34 79° W 06:00:55 10° S
Cosmos 1328 Rocket 3.4 05:51:36 15° NNW 05:55:13 76° W 05:59:33 10° S
Cosmos 1814 Rocket 4.0 05:52:27 16° NNW 05:56:39 83° ENE 06:01:52 10° SSE
Cosmos 1821 Rocket 4.3 05:54:05 10° NNW 05:59:40 38° W 06:05:14 10° SSW
Cosmos 1943 Rocket 4.4 05:58:55 10° N 06:02:10 15° NNE 06:05:24 10° ENE
Cosmos 1939 Rocket 2.8 05:58:30 10° N 06:02:29 60° WNW 06:06:31 10° SSW
USA 305 2.7 06:01:17 35° WNW 06:02:54 77° NNE 06:06:55 10° ESE
Cosmos 1500 3.0 06:00:39 10° S 06:04:22 90° W 06:08:08 10° N
SWARM A 4.5 06:02:31 10° SSW 06:05:57 50° W 06:09:24 10° N
USA 215 3.5 05:59:36 10° ENE 06:05:59 57° N 06:10:24 21° WNW
Cosmos 1980 Rocket 2.9 06:03:58 25° W 06:06:02 32° NW 06:11:04 10° NNE
Meteor 1-31 Rocket 2.6 06:03:21 10° NNE 06:07:10 82° WNW 06:10:56 10° SSW
Cosmos 1515 Rocket 3.7 06:03:14 10° N 06:07:38 78° E 06:12:03 10° SSE
FengYun 1-2 T 4.2 06:02:48 10° NNE 06:08:23 89° WNW 06:13:52 10° SSW
Meteor 1-27 Rocket 3.7 06:04:44 10° NNW 06:10:08 56° W 06:15:35 10° S
ERBS 1.5 06:11:15 51° NW 06:11:45 74° NNE 06:14:16 10° ESE
CZ-2D R/B 3.8 06:08:20 10° NNE 06:12:10 62° ESE 06:15:58 10° S
Cosmos 1741 Rocket 3.9 06:07:16 10° SSW 06:12:29 81° WNW 06:17:47 10° NNE
Cosmos 2278 Rocket 3.8 06:07:54 10° NNW 06:12:51 29° NE 06:17:46 10° ESE
NOSS 2-1 (C) 3.8 06:11:50 24° NW 06:14:27 74° SW 06:20:16 10° SE
Cosmos 2084 3.8 06:12:59 27° WNW 06:14:35 40° SW 06:18:27 10° SSE
USA 307 2.7 06:12:46 27° WNW 06:14:52 76° NNE 06:18:53 10° ESE
Meteor 1-25 Rocket 4.3 06:09:55 10° S 06:15:37 81° E 06:21:16 10° NNE
Cosmos 841 Rocket 4.0 06:14:01 20° NW 06:17:02 37° WSW 06:21:48 10° S
SL-16 R/B 2.1 06:13:57 10° SW 06:19:37 70° WNW 06:25:19 10° NNE
Cosmos 1867 3.6 06:15:33 18° NW 06:19:38 74° SW 06:25:04 10° SSE
Okean 1 3.2 06:16:04 10° NNW 06:20:08 83° W 06:24:11 10° S
Cosmos 968 Rocket 4.3 06:17:46 10° S 06:22:43 54° ESE 06:27:42 10° NNE
Cosmos 1408 Rocket 3.9 06:19:34 10° S 06:23:59 71° E 06:28:27 10° NNE
NOSS 2-1 (D) 3.9 06:21:03 20° NW 06:23:59 65° SW 06:29:53 10° SSE
Cosmos 1844 Rocket 2.9 06:22:15 15° NW 06:26:50 50° WSW 06:32:12 10° S
Landsat 4 3.5 06:23:18 10° NNE 06:27:01 77° WNW 06:30:41 10° SSW
Cosmos 2237 4.2 06:24:29 10° SW 06:30:11 74° WNW 06:35:56 10° NNE
Meteor 1-19 Rocket 4.3 06:24:40 10° NNW 06:30:25 63° W 06:35:58 10° S
USA 276 4.2 06:29:14 13° WSW 06:30:29 16° SSW 06:32:23 10° S
Meteor 2-4 Rocket 4.0 06:30:15 10° NNW 06:36:13 82° ENE 06:42:10 10° SSE
COSMO-SKYMED 1 4.3 06:35:44 10° WSW 06:37:50 14° W 06:37:50 14° W
Cosmos 1697 Rocket 4.2 06:36:05 14° NW 06:38:08 17° NNW 06:41:43 10° NNE
Cosmos 1605 Rocket 4.0 06:32:11 10° NNW 06:38:24 62° W 06:44:27 10° S
CZ-4B R/B 3.9 06:34:49 10° N 06:39:09 36° WNW 06:43:27 10° SW
Cosmos 1850 Rocket 4.2 06:35:06 10° SW 06:40:16 50° WNW 06:45:27 10° NNE
Cosmos 1315 Rocket 4.4 06:40:30 15° WNW 06:40:47 16° WNW 06:43:16 10° NNW
SL-8 R/B 4.3 06:36:46 10° WSW 06:41:29 55° S 06:46:12 10° E
Okean 3 Rocket 3.8 06:38:06 10° SSW 06:42:22 46° WNW 06:46:37 10° N
Meteor 1-20 Rocket 4.2 06:38:34 10° SSW 06:43:59 58° WNW 06:49:33 10° N
Cosmos 2322 Rocket 2.2 06:39:30 10° SW 06:45:07 64° NW 06:50:44 10° NNE
Cosmos 405 Rocket 3.1 06:41:26 10° N 06:45:11 65° ENE 06:48:59 10° SSE
NOAA 12 4.4 06:40:36 10° N 06:45:36 45° WNW 06:50:35 10° SW
Cosmos 1743 Rocket 4.0 06:41:23 10° S 06:45:41 66° E 06:50:04 10° NNE
H-2A R/B 2.2 06:43:17 10° N 06:47:59 45° WNW 06:52:42 10° SW
Meteor PRIRODA 3.5 06:46:35 10° NNE 06:50:15 86° WNW 06:53:53 10° SSW
ATLAS 2AS CENTAUR R/B 2.8 06:43:15 10° NW 06:50:22 88° SW 06:57:04 10° SE
ADEOS 3.7 06:45:24 10° NNE 06:50:40 82° ESE 06:55:54 10° SSW
RESURS DK-1 3.6 06:48:25 10° NNW 06:52:18 37° NE 06:56:09 10° ESE
USA 308 2.8 06:49:21 13° WNW 06:52:56 80° SSW 06:56:58 10° ESE
Cosmos 1544 3.2 06:50:19 10° SSW 06:53:45 49° WNW 06:57:13 10° N
SJ-11-01 4.2 06:52:15 10° NNE 06:56:57 83° WNW 07:01:37 10° SSW
COSMOS 2455 3.1 06:52:18 10° WSW 06:58:05 47° NW 07:03:55 10° NNE
USA 290 4.1 06:59:00 11° WNW 07:00:28 13° NW 07:02:11 10° NNW
BREEZE-M DEB (TANK) 3.8 06:58:04 10° WSW 07:01:14 71° S 07:10:24 10° E
H-2A R/B 4.1 06:59:19 10° ESE 07:03:04 27° ENE 07:06:47 10° N
Cosmos 2333 4.3 06:57:59 10° SSW 07:03:37 85° ESE 07:09:16 10° NNE
Cosmos 2100 Rocket 4.1 06:59:30 10° N 07:05:49 90° ENE 07:12:01 10° S
Cosmos 1666 3.5 07:03:16 10° SW 07:06:36 29° WNW 07:09:57 10° N
CZ-4 R/B 4.3 07:04:14 10° NE 07:07:13 19° E 07:10:12 10° SE
CZ-4B R/B 3.1 07:04:10 10° NNE 07:08:38 80° WNW 07:13:08 10° SSW
Lacrosse 5 rocket 3.6 07:08:45 10° SSW 07:12:08 29° SE 07:15:41 10° ENE
SJ 16-02 3.2 07:08:12 10° S 07:12:15 37° ESE 07:16:19 10° NE
Cosmos 2360 Rocket 2.2 07:06:50 10° SW 07:12:22 59° NW 07:17:58 10° NNE
Cosmos 2369 Rocket 4.2 07:10:15 10° NNW 07:13:51 17° NNE 07:17:26 10° ENE
USA 306 3.2 07:10:01 10° WNW 07:13:57 55° SSW 07:17:54 10° SE
Cosmos 1727 Rocket 4.0 07:08:43 10° SSW 07:14:55 74° WNW 07:21:08 10° N
Cosmos 2285 Rocket 4.1 07:11:37 10° NNW 07:18:03 71° WSW 07:24:25 10° SSE
